This demonstration page uses our WeatherBlox Daily Observations layout. Learn more.

39.29038, -76.61219

Hourly Observations for April 28, 2016

Temp ( °F °C ) Dew Point ( °F °C ) Humidity (%) Winds ( mph kmh ) Pressure ( in mb ) Visibility ( mi km ) Precip ( " mm )
12:54 am 00:54 undefined 54 12.2 47 8.3 77 77 undefined N/A 29.93 1014 N/A 0 0
1:54 am 01:54 undefined 54 12.2 47 8.3 77 77 undefined N/A 29.94 1014 N/A 0 0
2:54 am 02:54 undefined 54 12.2 48 8.9 80 80 undefined N/A 29.93 1014 N/A 0 0
3:54 am 03:54 undefined 55 12.8 48 8.9 77 77 undefined N/A 29.94 1014 N/A 0 0
4:54 am 04:54 undefined 55 12.8 48 8.9 77 77 undefined N/A 29.96 1015 N/A 0 0
5:54 am 05:54 undefined 54 12.2 48 8.9 80 80 undefined N/A 29.96 1015 N/A 0 0
6:54 am 06:54 undefined 54 12.2 47 8.3 77 77 undefined N/A 29.99 1016 N/A 0 0
7:54 am 07:54 undefined 55 12.8 48 8.9 77 77 undefined N/A 30.01 1016 N/A 0 0
8:54 am 08:54 undefined 55 12.8 47 8.3 74 74 undefined N/A 30.01 1016 N/A 0 0
9:54 am 09:54 undefined 56 13.3 43 6.1 62 62 undefined N/A 30 1016 N/A 0 0
10:54 am 10:54 undefined 55 12.8 41 5 59 59 undefined N/A 30.01 1016 N/A 0 0
11:54 am 11:54 undefined 52 11.1 44 6.7 75 75 undefined N/A 30.03 1017 N/A 0.03 0.762
12:54 pm 12:54 undefined 53 11.7 48 8.9 83 83 undefined N/A 30 1016 N/A 0.03 0.762
1:54 pm 13:54 undefined 52 11.1 46 7.8 80 80 undefined N/A 30.01 1016 N/A 0 0
2:54 pm 14:54 undefined 52 11.1 42 5.6 69 69 undefined N/A 30 1016 N/A 0 0
3:54 pm 15:54 undefined 51 10.6 40 4.4 66 66 undefined N/A 30.01 1016 N/A 0 0
4:54 pm 16:54 undefined 51 10.6 40 4.4 66 66 undefined N/A 30 1016 N/A 0 0
5:54 pm 17:54 undefined 51 10.6 41 5 69 69 undefined N/A 30.01 1016 N/A 0 0
6:54 pm 18:54 undefined 50 10 39 3.9 66 66 undefined N/A 30.01 1016 N/A 0 0
7:54 pm 19:54 undefined 49 9.4 42 5.6 77 77 undefined N/A 30.04 1017 N/A 0 0
8:54 pm 20:54 undefined 47 8.3 42 5.6 83 83 undefined N/A 30.04 1017 N/A 0 0
9:54 pm 21:54 undefined 48 8.9 40 4.4 74 74 undefined N/A 30.03 1017 N/A 0 0
10:54 pm 22:54 undefined 48 8.9 42 5.6 80 80 undefined N/A 30.04 1017 N/A 0 0
11:54 pm 23:54 undefined 48 8.9 42 5.6 80 80 undefined N/A 30.02 1017 N/A 0 0

Powered by AerisWeather